Weather History for Fremont, NE

Change the Weather History Date:

Tuesday, February 4, 2014

  Actual Average Record
Temperature  
Mean Temperature 14 °F -  
Max Temperature 24 °F 32 °F 62 °F (2005)
Min Temperature 3 °F 13 °F -14 °F (1989)
Degree Days  
Heating Degree Days 52    
Moisture  
Dew Point 12 °F    
Average Humidity 83    
Maximum Humidity 91    
Minimum Humidity 66    
Precipitation  
Precipitation 0.00 in - - ()
Sea Level Pressure  
Sea Level Pressure 30.29 in    
Wind  
Wind Speed 8 mph (NNE)    
Max Wind Speed 17 mph    
Max Gust Speed 29 mph    
Visibility 6 miles    
Events Snow    
Averages and records for this station are not official NWS values.
T = Trace of Precipitation, MM = Missing Value Source: NWS Daily Summary

Daily Weather History Graph

Daily Weather History Graph

Search for Another Location

Airport:

Trip Planner

Search our weather history database for the weather conditions in past years. The results will help you decide how hot, cold, wet, or windy it might be!

Date:

Astronomy

Feb. 04, 2014 Rise Set
Actual Time 7:34 AM CST 5:46 PM CST
Civil Twilight 7:05 AM CST 6:15 PM CST
Nautical Twilight 6:32 AM CST 6:48 PM CST
Astronomical Twilight 6:00 AM CST 7:20 PM CST
Moon 10:08 AM CST (2/4) 11:46 PM CST (2/4)
Length of Visible Light 11h 09m
Length of Day
10h 11m
Waxing Crescent, 29% of the Moon is Illuminated
Feb 4
Waxing Crescent
Feb 6
First Quarter
Feb 14
Full
Feb 22
Last Quarter
Mar 1
New

Hourly Weather History & Observations

Time (CST) Temp. Windchill Dew Point Humidity Pressure Visibility Wind Dir Wind Speed Gust Speed Precip Events Conditions
12:15 AM 24.6 °F 17.7 °F 14.7 °F 66% 30.23 in 10.0 mi SE 5.8 mph - N/A   Mostly Cloudy
12:35 AM 24.6 °F 20.3 °F 14.9 °F 67% 30.23 in 10.0 mi ESE 3.5 mph - N/A   Overcast
12:55 AM 24.6 °F 18.8 °F 14.7 °F 66% 30.24 in 10.0 mi SE 4.6 mph - N/A   Overcast
1:15 AM 24.4 °F 20.1 °F 14.5 °F 66% 30.23 in 10.0 mi ESE 3.5 mph - N/A   Overcast
1:35 AM 24.3 °F 19.9 °F 14.4 °F 66% 30.23 in 10.0 mi East 3.5 mph - N/A   Overcast
1:55 AM 24.3 °F 19.9 °F 14.7 °F 67% 30.23 in 10.0 mi East 3.5 mph - N/A   Overcast
2:15 AM 24.1 °F 19.7 °F 14.7 °F 68% 30.23 in 10.0 mi East 3.5 mph - N/A   Overcast
2:35 AM 24.3 °F 19.9 °F 14.9 °F 68% 30.23 in 10.0 mi ENE 3.5 mph - N/A   Overcast
2:55 AM 23.9 °F 19.5 °F 14.9 °F 69% 30.24 in 10.0 mi East 3.5 mph - N/A   Overcast
3:15 AM 24.3 °F 19.9 °F 15.3 °F 69% 30.24 in 10.0 mi NE 3.5 mph - N/A   Overcast
3:35 AM 23.9 °F 18.0 °F 14.9 °F 69% 30.24 in 10.0 mi ENE 4.6 mph - N/A   Overcast
3:55 AM 23.9 °F 15.0 °F 14.9 °F 69% 30.25 in 10.0 mi East 8.1 mph - N/A   Overcast
4:15 AM 23.9 °F 19.5 °F 15.1 °F 69% 30.25 in 10.0 mi ENE 3.5 mph - N/A   Overcast
4:35 AM 23.7 °F 16.6 °F 15.6 °F 71% 30.25 in 10.0 mi NE 5.8 mph - N/A   Overcast
4:55 AM 23.7 °F 16.6 °F 16.2 °F 73% 30.25 in 10.0 mi NE 5.8 mph - N/A   Overcast
5:15 AM 23.5 °F 16.4 °F 17.2 °F 77% 30.25 in 10.0 mi ENE 5.8 mph - N/A   Overcast
5:35 AM 23.5 °F 15.4 °F 18.1 °F 80% 30.26 in 10.0 mi ENE 6.9 mph - N/A   Overcast
5:55 AM 23.5 °F 14.5 °F 18.9 °F 82% 30.26 in 10.0 mi ENE 8.1 mph - N/A   Overcast
6:15 AM 23.4 °F 17.4 °F 19.2 °F 84% 30.26 in 10.0 mi NE 4.6 mph - N/A   Overcast
6:35 AM 23.5 °F 16.4 °F 19.9 °F 86% 30.26 in 10.0 mi ENE 5.8 mph - N/A   Overcast
6:55 AM 23.5 °F 15.4 °F 20.3 °F 87% 30.26 in 10.0 mi ENE 6.9 mph - N/A Snow Light Snow
7:15 AM 23.4 °F 14.3 °F 20.7 °F 89% 30.27 in 10.0 mi ENE 8.1 mph - N/A Snow Light Snow
7:35 AM 23.2 °F 14.1 °F 20.5 °F 89% 30.26 in 10.0 mi NE 8.1 mph - N/A   Overcast
7:55 AM 22.8 °F 14.5 °F 19.4 °F 87% 30.26 in 10.0 mi NNE 6.9 mph - N/A   Overcast
8:15 AM 21.2 °F 10.9 °F 17.6 °F 86% 30.26 in 10.0 mi NNE 9.2 mph - N/A   Overcast
8:35 AM 19.9 °F 9.3 °F 16.5 °F 87% 30.26 in 10.0 mi NNE 9.2 mph - N/A   Overcast
8:55 AM 19.4 °F 6.6 °F 16.3 °F 88% 30.25 in 10.0 mi NNE 12.7 mph 18.4 mph N/A   Overcast
9:15 AM 18.5 °F 8.4 °F 15.4 °F 88% 30.26 in 10.0 mi NNE 8.1 mph 18.4 mph N/A   Overcast
9:35 AM 18.1 °F 6.3 °F 14.9 °F 87% 30.26 in 10.0 mi NNE 10.4 mph 17.3 mph N/A   Overcast
9:55 AM 17.6 °F 6.4 °F 14.0 °F 86% 30.26 in 10.0 mi NNE 9.2 mph - N/A   Overcast
10:15 AM 17.4 °F 5.4 °F 13.8 °F 86% 30.28 in 10.0 mi NNE 10.4 mph - N/A   Overcast
10:35 AM 17.2 °F 3.9 °F 13.6 °F 86% 30.28 in 4.0 mi NNE 12.7 mph 16.1 mph N/A Snow Light Snow
10:55 AM 16.7 °F 3.2 °F 13.6 °F 88% 30.29 in 2.5 mi NE 12.7 mph 16.1 mph N/A Snow Light Snow
11:15 AM 16.7 °F 3.8 °F 14.0 °F 89% 30.28 in 1.8 mi NNE 11.5 mph - N/A Snow Light Snow
11:35 AM 16.5 °F 4.3 °F 14.0 °F 90% 30.28 in 1.5 mi NNE 10.4 mph 17.3 mph N/A Snow Light Snow
11:55 AM 16.7 °F 5.3 °F 14.0 °F 89% 30.27 in 3.0 mi NNE 9.2 mph 16.1 mph N/A Snow Light Snow
12:15 PM 17.1 °F 4.3 °F 14.0 °F 88% 30.27 in 4.0 mi NNE 11.5 mph 17.3 mph N/A Snow Light Snow
12:35 PM 16.9 °F 4.8 °F 13.6 °F 87% 30.27 in 3.0 mi NNE 10.4 mph 17.3 mph N/A Snow Light Snow
12:55 PM 17.1 °F 4.3 °F 13.8 °F 87% 30.26 in 2.0 mi NNE 11.5 mph 17.3 mph N/A Snow Light Snow
1:15 PM 17.2 °F 5.2 °F 13.8 °F 86% 30.26 in 1.5 mi NNE 10.4 mph 16.1 mph N/A Snow Light Snow
1:35 PM 17.2 °F 5.2 °F 14.0 °F 87% 30.26 in 1.0 mi North 10.4 mph - N/A Snow Light Snow
1:55 PM 16.3 °F 3.4 °F 13.5 °F 88% 30.27 in 0.8 mi NNE 11.5 mph 18.4 mph N/A Snow Light Snow
2:15 PM 15.8 °F 4.2 °F 13.1 °F 89% 30.27 in 0.8 mi NNE 9.2 mph 20.7 mph N/A Snow Light Snow
2:35 PM 15.6 °F 3.2 °F 13.1 °F 90% 30.26 in 0.8 mi North 10.4 mph 20.7 mph N/A Snow Light Snow
2:55 PM 15.3 °F 1.4 °F 13.1 °F 91% 30.25 in 0.8 mi NNE 12.7 mph 20.7 mph N/A Snow Light Snow
3:15 PM 14.5 °F 1.1 °F 12.0 °F 90% 30.26 in 0.8 mi North 11.5 mph 20.7 mph N/A Snow Light Snow
3:35 PM 14.0 °F -0.8 °F 11.5 °F 90% 30.26 in 1.2 mi North 13.8 mph 19.6 mph N/A Snow Light Snow
3:55 PM 13.5 °F -0.9 °F 10.9 °F 90% 30.26 in 1.0 mi North 12.7 mph 24.2 mph N/A Snow Light Snow
4:15 PM 12.0 °F -3.4 °F 9.3 °F 89% 30.26 in 1.0 mi North 13.8 mph 20.7 mph N/A Snow Light Snow
4:35 PM 10.9 °F -5.9 °F 7.9 °F 87% 30.27 in 1.8 mi North 16.1 mph 24.2 mph N/A Snow Light Snow
4:55 PM 10.2 °F -5.0 °F 7.3 °F 88% 30.27 in 1.8 mi North 12.7 mph 23.0 mph N/A Snow Light Snow
5:15 PM 9.5 °F -6.6 °F 6.4 °F 87% 30.28 in 1.5 mi North 13.8 mph 25.3 mph N/A Snow Light Snow
5:35 PM 8.6 °F -7.0 °F 5.7 °F 88% 30.29 in 1.5 mi North 12.7 mph 26.5 mph N/A Snow Light Snow
6:15 PM 8.4 °F -9.7 °F 5.4 °F 87% 30.30 in 2.0 mi North 17.3 mph 25.3 mph N/A Snow Light Snow
6:35 PM 8.1 °F -9.0 °F 5.0 °F 87% 30.32 in 1.8 mi North 15.0 mph 24.2 mph N/A Snow Light Snow
6:55 PM 8.1 °F -9.0 °F 5.4 °F 89% 30.33 in 1.8 mi North 15.0 mph 21.9 mph N/A Snow Light Snow
7:15 PM 7.7 °F -8.2 °F 4.8 °F 88% 30.34 in 2.0 mi North 12.7 mph 23.0 mph N/A Snow Light Snow
7:35 PM 7.5 °F -6.9 °F 4.8 °F 89% 30.35 in 1.8 mi North 10.4 mph 20.7 mph N/A Snow Light Snow
7:55 PM 7.0 °F -8.3 °F 4.5 °F 89% 30.35 in 1.8 mi North 11.5 mph 19.6 mph N/A Snow Light Snow
8:15 PM 6.8 °F -7.8 °F 3.7 °F 87% 30.36 in 2.5 mi North 10.4 mph 20.7 mph N/A Snow Light Snow
8:35 PM 6.4 °F -10.5 °F 3.2 °F 87% 30.36 in 2.0 mi North 13.8 mph 24.2 mph N/A Snow Light Snow
8:55 PM 6.3 °F -8.4 °F 3.2 °F 87% 30.37 in 2.5 mi North 10.4 mph 23.0 mph N/A Snow Light Snow
9:15 PM 5.9 °F -11.8 °F 2.7 °F 87% 30.38 in 2.0 mi North 15.0 mph 21.9 mph N/A Snow Light Snow
9:35 PM 5.5 °F -13.5 °F 2.1 °F 86% 30.40 in 2.0 mi North 17.3 mph 23.0 mph N/A Snow Light Snow
9:55 PM 5.4 °F -12.5 °F 2.3 °F 87% 30.40 in 1.5 mi North 15.0 mph 23.0 mph N/A Snow Light Snow
10:15 PM 5.0 °F -11.6 °F 1.9 °F 87% 30.41 in 1.8 mi NNW 12.7 mph 20.7 mph N/A Snow Light Snow
10:35 PM 4.6 °F -12.8 °F 1.4 °F 86% 30.41 in 2.5 mi North 13.8 mph 20.7 mph N/A Snow Light Snow
10:55 PM 4.1 °F -13.4 °F 0.3 °F 84% 30.42 in 4.0 mi North 13.8 mph 28.8 mph N/A Snow Light Snow
11:15 PM 4.1 °F -14.1 °F 0.9 °F 86% 30.43 in 2.5 mi North 15.0 mph 23.0 mph N/A Snow Light Snow
11:35 PM 3.9 °F -15.6 °F 0.1 °F 84% 30.43 in 3.0 mi NNW 17.3 mph 23.0 mph N/A Snow Light Snow
11:55 PM 3.6 °F -16.0 °F -0.8 °F 82% 30.44 in 4.0 mi NNW 17.3 mph 25.3 mph N/A Snow Light Snow